Location: 5810 Zion Rd, Cleves, OH 45002, USA
(39.1922°N, 84.7113°W)
Time: 18:10:53
(UTC-05:00)

Vanguard 3 - Pass Details

Date: 20 December 2019
Orbit: 508 x 3263 km, 33.4° (Epoch: 20 January)

Event Time Altitude Azimuth Distance (km) Brightness Sun altitude
Rises 06:05:08 0° 239° (WSW) 2,722 - -20.3°
Reaches altitude 10° 06:07:09 10° 230° (SW) 1,955 - -20.0°
Exits shadow 06:08:18 18° 221° (SW) 1,580 8.4 -19.7°
Maximum altitude 06:11:12 38° 162° (SSE) 1,168 8.2 -19.2°
Drops below altitude 10° 06:17:20 10° 96° (E) 2,983 11.3 -18.1°
Sets 06:21:08 0° 90° (E) 4,405 12.4 -17.4°
